[[{"header":{"parameterUnit":"m.s-1","parameterCategory":1,"la1":30.2991,"la2":30.254,"lo1":-89.0895,"lo2":-89.0444,"dy":0.0017,"dx":0.0017,"nx":28,"ny":28,"refTime":"2025-07-21T09:00:00:Z","depth":0,"parameterNumber":2,"parameterNumberName":"U-component_of_WINDS"},"data":[0,0,0,0,0,0,0,0,0,0,0,0,0,0,0,0,0,0,0,0,0,0,0,0,0,0,0,0,0,0,0,0,0,0,0,0,0,0,0,0,0,0,0,0,0,0,0,0,0,0,0,0,0,0,0,0,0,0,2.1716,2.1718,0,2.1874,2.1876,2.1878,2.1914,2.1913,2.1912,2.1911,2.2073,2.2079,2.2084,0,0,0,0,0,0,0,0,0,0,0,0,0,2.1445,2.1449,2.1716,2.1718,2.172,2.1874,2.1876,2.1879,2.1914,2.1913,2.1911,2.191,2.2072,2.2078,2.2084,0,0,0,0,0,0,0,0,0,0,0,0,0,2.1579,2.1451,2.1716,2.1756,2.1762,2.1874,2.1876,2.1879,2.1914,2.1913,2.1911,2.1909,2.207,2.2077,2.2085,2.2168,0,0,2.211,2.2113,0,0,0,0,0,0,0,0,2.1571,2.1589,2.1748,2.1754,2.176,2.1873,2.184,2.1976,2.1915,2.1856,2.1911,2.1909,2.2008,2.2021,2.2054,2.2176,2.2183,2.2111,2.2115,2.2119,2.2121,0,0,0,0,0,0,0,2.1562,2.1582,2.1779,2.1751,2.1758,2.1767,2.1784,2.1866,2.194,2.1861,2.1864,2.1883,2.2011,2.2047,2.2058,2.2185,2.211,2.2118,2.2123,2.2126,2.2382,2.2383,0,0,0,0,0,0,2.1545,2.1574,2.1774,2.1784,2.1659,2.1773,2.1792,2.1838,2.1939,2.1953,2.1884,2.1884,2.2034,2.2049,2.2064,2.2167,2.2119,2.2126,2.2131,2.238,2.2382,2.2384,0,0,0,0,0,0,2.1539,2.1563,2.1767,2.168,2.1706,2.1779,2.1831,2.1842,2.1878,2.1956,2.1969,2.1907,2.2033,2.2053,2.2142,2.2173,2.213,2.2137,2.2377,2.238,2.2383,2.2373,0,0,0,0,0,0,2.1531,2.156,2.1593,2.168,2.1711,2.1842,2.1833,2.1846,2.1892,2.1893,2.1981,2.1994,2.2033,2.213,2.215,2.2183,2.2144,2.2375,2.2379,2.2382,2.2371,2.2375,2.2379,0,0,0,0,0,2.1521,2.1584,2.1594,2.1618,2.1753,2.1844,2.1862,2.1905,2.1894,2.1927,2.1977,2.1991,2.2167,2.2138,2.2161,2.2198,2.2373,2.2378,2.2382,2.2369,2.2374,2.2379,0,0,0,0,0,0,2.1499,2.1596,2.1608,2.1701,2.1764,2.185,2.1893,2.191,2.1977,2.1975,2.2027,2.2047,2.2132,2.2174,2.2141,2.2283,2.2269,2.2279,2.2252,2.2258,2.2262,2.2249,2.215,0,0,0,0,0,2.1504,2.157,2.1652,2.1726,2.1757,2.1819,2.186,2.1889,2.1956,2.1982,2.2039,2.2104,2.2173,2.2218,2.2287,2.2378,2.2397,2.2414,2.2418,2.2421,2.2428,2.2478,2.2486,2.2399,2.2399,2.2399,0,0,2.1517,2.1578,2.1617,2.1723,2.1775,2.1841,2.1841,2.1912,2.1962,2.1993,2.208,2.2124,2.2199,2.2289,2.2332,2.2327,2.2457,2.2427,2.2428,2.2434,2.2483,2.2491,2.2499,2.2402,2.2401,2.2401,0,0,2.1573,2.1627,2.1694,2.1746,2.1824,2.1865,2.1881,2.1964,2.1994,2.2082,2.2107,2.2167,2.2286,2.2339,2.2381,2.2456,2.2471,2.2477,2.2498,2.2546,2.2553,2.2559,2.2585,2.2593,2.2484,2.2484,2.2484,0,2.1579,2.168,2.1726,2.1795,2.1841,2.1872,2.194,2.1988,2.2085,2.2115,2.2109,2.2258,2.2311,2.2413,2.2431,2.2465,2.2484,2.2467,2.2548,2.2555,2.2562,2.2586,2.2596,2.2484,2.2484,2.2484,2.2484,0,2.1682,2.1752,2.1797,2.1888,2.1939,2.2007,2.2063,2.2109,2.2133,2.2174,2.2263,2.2328,2.2409,2.2436,2.246,2.2541,2.2535,2.2538,2.2525,2.2569,2.2593,2.2603,2.2485,2.2485,2.2485,2.2485,0,0,2.1728,2.1844,2.1859,2.1901,2.199,2.2044,2.2114,2.2193,2.2231,2.2297,2.2355,2.2455,2.2458,2.2506,2.2536,2.2578,2.2632,2.2576,2.2579,2.2583,2.2723,2.2719,2.2729,2.2643,2.2645,2.2647,2.2716,0,2.1794,2.1918,2.1961,2.2064,2.2128,2.2159,2.2219,2.228,2.2321,2.2381,2.2426,2.2495,2.2495,2.2524,2.2567,2.2616,2.2661,2.2612,2.2697,2.27,2.2676,2.2742,2.2739,2.2801,2.2726,2.2728,2.2729,0,2.1887,2.1953,2.2062,2.2142,2.217,2.2224,2.2299,2.2357,2.2426,2.2453,2.2506,2.2533,2.2606,2.259,2.2691,2.2657,2.2694,2.2724,2.2727,2.2736,2.2716,2.2751,2.2822,2.2831,2.2745,2.2743,2.2742,0,2.1907,2.2024,2.2104,2.2139,2.2234,2.227,2.2312,2.238,2.2424,2.249,2.252,2.2594,2.2634,2.2691,2.2737,2.2721,2.2833,2.2821,2.2856,2.2855,2.2878,2.2875,2.2954,2.2904,2.2904,2.2904,2.2904,0,2.1975,2.204,2.2114,2.2163,2.2236,2.2285,2.2356,2.24,2.246,2.2517,2.2549,2.2602,2.2661,2.2722,2.2759,2.2836,2.2855,2.2877,2.2886,2.2874,2.287,2.2898,2.2894,2.2907,2.2906,2.2905,2.2905,0,2.2009,2.2062,2.215,2.2233,2.2256,2.2306,2.2377,2.2425,2.2467,2.254,2.2559,2.2625,2.2699,2.2751,2.2846,2.287,2.2953,2.2962,2.2929,2.2933,2.2965,2.296,2.3063,2.3078,2.3019,2.3019,2.302,0,2.2048,2.2099,2.2187,2.2228,2.2269,2.2334,2.238,2.243,2.2476,2.2558,2.2597,2.2672,2.2735,2.285,2.2907,2.2979,2.2989,2.302,2.3,2.2986,2.2988,2.2984,2.2988,2.3023,2.3023,2.3023,2.3024,0,2.2112,2.2135,2.2199,2.2272,2.2325,2.2386,2.2446,2.2478,2.2539,2.2589,2.2664,2.2712,2.2808,2.2882,2.296,2.3003,2.3023,2.303,2.3041,2.3028,2.3006,2.3017,2.2935,2.3027,2.3026,2.3026,2.3026,2.3026,2.2149,2.2194,2.2263,2.2333,2.2384,2.244,2.2489,2.2537,2.26,2.2682,2.2708,2.2786,2.2853,2.2959,2.3003,2.3064,2.3063,2.308,2.3084,2.3087,2.3086,2.2998,2.3079,2.3079,2.3079,2.3079,2.3079,0,2.2212,2.2258,2.2322,2.2405,2.246,2.2475,2.2543,2.2587,2.2655,2.2716,2.2777,2.2863,2.2935,2.2997,2.3071,2.3108,2.3119,2.3126,2.3123,2.3132,2.3084,2.3065,2.3115,2.3115,2.3115,2.3115,2.3115,2.3115,2.2251,2.2329,2.236,2.2463,2.2509,2.2585,2.2622,2.2673,2.2722,2.2816,2.2876,2.2916,2.2977,2.3056,2.3122,2.3139,2.3164,2.3168,2.3186,2.314,2.3135,2.3131,2.3114,2.3173,2.3173,2.3229,2.323,2.323]},{"header":{"parameterUnit":"m.s-1","parameterCategory":1,"la1":30.2991,"la2":30.254,"lo1":-89.0895,"lo2":-89.0444,"dy":0.0017,"dx":0.0017,"nx":28,"ny":28,"refTime":"2025-07-21T09:00:00:Z","depth":0,"parameterNumber":3,"parameterNumberName":"V-component_of_WINDS"},"data":[0,0,0,0,0,0,0,0,0,0,0,0,0,0,0,0,0,0,0,0,0,0,0,0,0,0,0,0,0,0,0,0,0,0,0,0,0,0,0,0,0,0,0,0,0,0,0,0,0,0,0,0,0,0,0,0,0,0,4.875,4.875,0,4.8709,4.8709,4.8708,4.8634,4.8632,4.8631,4.8629,4.8589,4.859,4.859,0,0,0,0,0,0,0,0,0,0,0,0,0,4.8765,4.8765,4.875,4.875,4.8749,4.8709,4.8709,4.8708,4.8634,4.8632,4.863,4.8629,4.8589,4.859,4.859,0,0,0,0,0,0,0,0,0,0,0,0,0,4.8745,4.8765,4.875,4.8707,4.8703,4.871,4.8709,4.8708,4.8634,4.8632,4.863,4.8628,4.8589,4.859,4.859,4.8636,0,0,4.8591,4.8592,0,0,0,0,0,0,0,0,4.8746,4.8744,4.8714,4.871,4.8705,4.8674,4.8699,4.8684,4.8635,4.866,4.8629,4.8627,4.862,4.8617,4.8615,4.8634,4.8633,4.8591,4.8592,4.8592,4.8592,0,0,0,0,0,0,0,4.8747,4.8746,4.8734,4.8714,4.8708,4.869,4.8685,4.8696,4.8653,4.8658,4.8652,4.8648,4.8617,4.8614,4.8613,4.8632,4.8591,4.8592,4.8592,4.8592,4.8687,4.8689,0,0,0,0,0,0,4.8755,4.8747,4.8735,4.8733,4.8721,4.8692,4.8686,4.8686,4.8652,4.8645,4.865,4.8645,4.8615,4.8613,4.8611,4.8662,4.8592,4.8592,4.8593,4.8685,4.8687,4.869,0,0,0,0,0,0,4.8756,4.8755,4.8737,4.8738,4.8735,4.8694,4.8695,4.8687,4.8684,4.8647,4.8639,4.8656,4.8613,4.8611,4.863,4.866,4.8592,4.8593,4.8682,4.8686,4.8689,4.8765,0,0,0,0,0,0,4.8756,4.8755,4.8772,4.8739,4.8735,4.8756,4.8697,4.8688,4.8685,4.8678,4.8649,4.8643,4.8611,4.863,4.8631,4.8659,4.8593,4.8679,4.8684,4.8688,4.876,4.8771,4.878,0,0,0,0,0,4.8757,4.8795,4.8773,4.8772,4.8755,4.8758,4.8756,4.8718,4.8688,4.8704,4.868,4.8644,4.8657,4.8633,4.8633,4.8662,4.8677,4.8682,4.8687,4.8755,4.8768,4.878,0,0,0,0,0,0,4.8833,4.879,4.8765,4.8794,4.878,4.8745,4.8765,4.8733,4.8728,4.8721,4.8675,4.867,4.8695,4.8681,4.8655,4.8704,4.8661,4.8667,4.8713,4.8725,4.8735,4.8738,4.8594,0,0,0,0,0,4.8853,4.8859,4.8821,4.8851,4.8845,4.8807,4.8806,4.8779,4.8762,4.8756,4.8734,4.872,4.8721,4.8722,4.8721,4.8758,4.875,4.8778,4.8788,4.8796,4.8801,4.8819,4.883,4.8707,4.8706,4.8706,0,0,4.8895,4.8872,4.8878,4.8865,4.8851,4.8858,4.8802,4.8812,4.8817,4.8758,4.8774,4.8758,4.8739,4.8767,4.8779,4.8756,4.8834,4.8803,4.881,4.881,4.8825,4.8837,4.8847,4.871,4.8709,4.8709,0,0,4.8973,4.8957,4.8979,4.8966,4.8946,4.892,4.8926,4.8896,4.8882,4.8898,4.8854,4.8859,4.8862,4.885,4.8845,4.892,4.8886,4.8921,4.8974,4.8992,4.9001,4.901,4.9036,4.9046,4.8927,4.8927,4.8927,0,4.9028,4.9036,4.8995,4.9007,4.9003,4.895,4.8972,4.8962,4.8942,4.894,4.8915,4.8917,4.8901,4.8926,4.8944,4.8942,4.8946,4.8924,4.9003,4.9011,4.9018,4.9043,4.9053,4.8931,4.8931,4.893,4.893,0,4.9103,4.911,4.9131,4.9112,4.911,4.9128,4.909,4.9093,4.9065,4.9042,4.9059,4.9038,4.9032,4.9036,4.901,4.9056,4.9043,4.9012,4.8967,4.9035,4.9057,4.9066,4.8937,4.8936,4.8934,4.8933,0,0,4.9228,4.9187,4.9195,4.9185,4.9159,4.9164,4.9179,4.9172,4.9175,4.9164,4.9175,4.9179,4.915,4.9144,4.9116,4.9132,4.9192,4.9098,4.9097,4.9115,4.9241,4.9264,4.9276,4.9169,4.9171,4.9172,4.9242,0,4.93,4.9323,4.9287,4.9318,4.9323,4.9274,4.9287,4.9272,4.9252,4.9254,4.9231,4.9234,4.9196,4.9191,4.9205,4.9181,4.9216,4.9176,4.9179,4.918,4.9184,4.9287,4.9311,4.9378,4.9251,4.9252,4.9253,0,4.9387,4.9379,4.9411,4.9382,4.9383,4.9396,4.9386,4.9389,4.9372,4.9356,4.9349,4.9316,4.9329,4.9287,4.9305,4.9279,4.9278,4.9267,4.9269,4.9266,4.922,4.9287,4.9399,4.9409,4.9267,4.9265,4.9265,0,4.9473,4.9471,4.9489,4.9483,4.945,4.946,4.9447,4.9428,4.9426,4.9418,4.9417,4.9411,4.9408,4.9404,4.9371,4.9343,4.9392,4.9347,4.9379,4.938,4.939,4.939,4.9503,4.9392,4.9392,4.9392,4.9392,0,4.9556,4.9578,4.9527,4.9538,4.9561,4.952,4.9543,4.9525,4.9509,4.9516,4.9473,4.9481,4.9436,4.944,4.9414,4.9432,4.9431,4.9418,4.9411,4.9421,4.9423,4.9419,4.9413,4.9395,4.9394,4.9394,4.9393,0,4.9656,4.9623,4.9639,4.9607,4.96,4.9618,4.959,4.96,4.9577,4.9587,4.9586,4.955,4.9552,4.9518,4.9513,4.9496,4.9525,4.951,4.9531,4.9525,4.9558,4.9555,4.9672,4.9685,4.9568,4.9569,4.957,0,4.971,4.9725,4.9695,4.9696,4.9685,4.9689,4.9686,4.9647,4.9646,4.9628,4.964,4.9638,4.9634,4.9639,4.9612,4.9608,4.9592,4.9633,4.9591,4.9601,4.9591,4.959,4.9591,4.9642,4.9643,4.9644,4.9645,0,4.9811,4.9794,4.9792,4.9785,4.9783,4.9775,4.9765,4.9769,4.9726,4.9728,4.9729,4.9726,4.972,4.9719,4.971,4.9697,4.9664,4.9659,4.9666,4.9676,4.9687,4.9681,4.9554,4.9656,4.9655,4.9654,4.9654,4.9653,4.9888,4.9899,4.9879,4.9879,4.9867,4.9859,4.9865,4.9843,4.9843,4.9835,4.9813,4.9817,4.98,4.9784,4.9774,4.9778,4.9757,4.9767,4.977,4.9773,4.9778,4.9688,4.9776,4.9776,4.9775,4.9775,4.9775,0,4.9985,4.997,4.997,4.9957,4.9957,4.9926,4.9913,4.9915,4.992,4.9906,4.9903,4.9904,4.9903,4.9876,4.9872,4.9879,4.9864,4.9879,4.9878,4.9875,4.9797,4.9791,4.9892,4.9892,4.9892,4.9892,4.9891,4.9891,5.0035,5.0052,5.0033,5.0044,5.0028,5.0032,5.0028,5.002,5.0009,5.0011,5.001,4.9993,4.9974,4.9968,4.9965,4.9957,4.9957,4.9977,4.9965,4.9892,4.9881,4.987,4.9864,4.9978,4.9978,5.0042,5.0042,5.0043]}]]